星链-5712 (STARLINK-5712 )

导读

STARLINK-5712是美国太空探索技术公司(SpaceX)星链星座的低轨通信卫星,于2023年2月12日发射升空,属于星链二代组网卫星。它运行在近地轨道,配备激光星间链路,可实现卫星间直接通信,为全球提供高速宽带互联网接入服务,助力星链完成全球覆盖的卫星互联网组网建设,目前已正常在轨运行超过三年。

Basic Information
目录编号:
55615
目录名称:
STARLINK-5712
国际标识:
2023-020AY
轨道中心:
EARTH
卫星名称:
星链-5712
卫星全名:
星链-5712 (STARLINK-5712 )
卫星状态:
在轨 (已飞行1308 天)
发射日期:
2023-02-12 UTC
国别 :
美国 (US)
星等 :
--
This satellite is enrolled in the Space Conjunction Data Service (SCDS) and the current flight risk assessment level is: High Risk
Orbit Information
数据来源 国际轨道数据
星历时间: 2026-09-11T23:39:45+0800
1天前
查看轨道信息
半长轴: 6861.249km
偏心率: 0.0001219
轨道倾角: 43.003°
近地点辐角 266.104°
升交点赤经 23.694°
平近点角 93.967°
近地点: 482.275km
远地点: 483.949km
周期: 94.268分钟
每日圈数: 15.27559
Detailed Information
固有亮度:
5
最大亮度:
2.5
卫星平台:
Starlink v1.5
覆盖范围:
全球
运营商:
太空探索技术公司
运营商所在国:
美国
制造商(研发单位):
太空探索技术公司
制造商所在国:
美国
使用方式:
暂无
Satellite Introduction
星链(Starlink)计划是由太空探索技术公司(SpaceX)提出的一个巨型低轨卫星互联网星座项目,计划在2019年至2024年间在太空搭建由约1.2万颗卫星组成的“星链”网络,其中1584颗将部署在地球上空550千米处的近地轨道,并从2020年开始工作。该卫星仍在工作。
2D Orbit Map
3D Orbit Map
Orbit Altitude Analysis Chart
Orbit Inclination Analysis Chart
Orbit Comprehensive Analysis Chart
View Comprehensive Chart
Conjunction Data List
Event ID Objects TCA Miss Dist (km) Collision Risk Probability Collision Risk Index (CRI) Action
CDM_260913-131505-561506-744621
2026-09-13T
13:15:52+0000
0.535 km
远距离
1.380459E-4 高风险 0.78
CDM_260915-021605-561506-347321
2026-09-15T
02:16:32+0000
0.702 km
远距离
5.42603E-5 中风险 0.7
CDM_260914-085205-561506-744621
2026-09-14T
08:52:48+0000
0.923 km
远距离
2.706901E-5 中风险 0.64
CDM_260913-114105-561506-744622
2026-09-13T
11:41:42+0000
1.196 km
极远距离
1.106172E-5 中风险 0.56
CDM_260915-004205-561506-347321
2026-09-15T
00:42:23+0000
1.369 km
极远距离
5.76745E-6 低风险 0.5
CDM_260914-071805-561506-744622
2026-09-14T
07:18:38+0000
1.685 km
极远距离
3.581529E-6 低风险 0.46
CDM_260913-145005-561506-744621
2026-09-13T
14:50:01+0000
2.294 km
极远距离
1.638666E-6 低风险 0.39
CDM_260914-102605-561506-744621
2026-09-14T
10:26:57+0000
2.823 km
极远距离
1.156466E-6 低风险 0.36
CDM_260913-100705-561506-744622
2026-09-13T
10:07:33+0000
2.893 km
极远距离
1.120737E-6 低风险 0.36
CDM_260914-230805-561506-347321
2026-09-14T
23:08:13+0000
2.861 km
极远距离
9.732433E-7 极低风险 0.35
Miss Distance Evolution Trend with All Objects
Collision Probability Evolution Trend with All Objects